Regional Weather Roundup
Issued by NWS Wakefield, VA

Home | Current Version | Previous Version | Graphics & Text | Print | Product List | Glossary On
Versions: 1 2 3 4 5 6 7 8 9 10 11 12 13 14 15 16 17 18 19 20 21 22 23 24 25 26 27 28 29 30 31 32 33 34 35 36 37 38 39 40 41 42 43 44 45 46 47 48 49 50
123
ASUS41 KAKQ 240415
RWRAKQ

REGIONAL WEATHER ROUNDUP
NATIONAL WEATHER SERVICE WAKEFIELD VA
1200 AM EDT WED AUG 24 2016

Note: "fair" indicates few or no clouds below 12,000 feet with no
significant weather and/or obstructions to visibility. * = Denotes
station may not report precipitation (e.g., rain,snow,etc.),
thunder or fog.

VAZ042-051-052>054-056-240500-
NORTHERN VIRGINIA

CITY           SKY/WX    TMP DP  RH WIND       PRES   REMARKS
WASH NATIONAL  CLEAR     72  61  68 SW5       30.30S
DULLES         PTCLDY    69  60  73 CALM      30.31R
FORT BELVOIR   CLEAR     65  63  93 CALM      30.29S
QUANTICO       CLEAR     71  65  81 NW7       30.31R
FREDERICKSBRG* CLEAR     66  63  90 CALM      30.30R
STAFFORD*      CLEAR     62  61  97 CALM      30.35R
WARRENTON      CLEAR     64  58  81 CALM      30.30R
CULPEPER*      CLEAR     65  64  99 CALM      30.32R
MANASSAS*      CLEAR     64  64 100 CALM      30.31R
LEESBURG*      CLEAR     70  66  88 CALM      30.32R
WINCHESTER     CLEAR     64  63  94 CALM      30.30S
FRONT ROYAL*   FAIR      64  63  94 CALM      30.30R
LURAY*         FAIR     N/A N/A N/A CALM      30.31S
$$

VAZ048-049-060>072-079>083-240500-
CENTRAL AND SOUTH CENTRAL VIRGINIA

CITY           SKY/WX    TMP DP  RH WIND       PRES   REMARKS
RICHMOND       CLEAR     66  59  78 SE7       30.30S
CHESTERFIELD*  FAIR      66  50  55 CALM      30.32R
PETERSBURG*    CLEAR    N/A N/A N/A CALM      30.31S
HANOVER        CLEAR     64  60  87 CALM      30.32S
TAPPAHANNOCK*  CLEAR     65  63  94 CALM      30.31S
QUINTON*       FAIR      63  62  94 CALM      30.30S
CHARLOTTSVILLE CLEAR     68  64  87 CALM      30.31R
GORDONSVILLE*  FAIR      64  64 100 CALM      30.31R
ORANGE*          N/A     64  64 100 CALM      30.33R
LOUISA*        CLEAR     68  64  88 CALM      30.30R
BUMPASS*       FAIR      66  62  86 CALM      30.31R
FARMVILLE*     CLEAR    N/A N/A N/A CALM      30.29S
CREWE*         FAIR      65  65 100 CALM      30.31R
FORT PICKETT*  NOT AVBL
CHASE CITY*    FAIR      69  65  88 SE3       30.30S
CLARKSVILLE*   FAIR      70  64  83 SE3       30.30S
SOUTH HILL*    MOCLDY    69  62  79 CALM      30.36S
LAWRENCEVILLE* FAIR      67  62  82 CALM      30.31R
EMPORIA*       CLEAR     63  59  88 CALM      30.32S
$$

VAZ088>098-240500-
SOUTHEAST VIRGINIA

CITY           SKY/WX    TMP DP  RH WIND       PRES   REMARKS
NORFOLK        CLEAR     72  61  68 E6        30.29F
VIRGINIA BEACH CLEAR     72  58  61 CALM      30.29S
NORFOLK NAVAL  CLEAR     70  60  70 SE3       30.31S
WEST POINT*    CLEAR     64  59  85 CALM      30.32S
SALUDA*        FAIR      66  61  84 CALM      30.30S
NEWPORT NEWS   CLEAR     63  61  93 CALM      30.30S
LANGLEY AFB    CLEAR     66  61  84 CALM      30.29F
FORT EUSTIS    CLEAR     69  60  73 E1        30.27F
WILLIAMSBURG*  CLEAR     70  64  83 E3        30.31S
HR EXEC AP*    FAIR      57  54  88 CALM      30.32F
FRANKLIN*      CLEAR     62  59  88 CALM      30.31S
US460-WAKEFLD  CLEAR     65  60  84 CALM      30.30S
$$

VAZ020-022-025-037-045-240500-
WEST CENTRAL AND SOUTHWEST VIRGINIA

CITY           SKY/WX    TMP DP  RH WIND       PRES   REMARKS
STAUNTON*      CLEAR     63  60  93 CALM      30.34S
WAYNESBORO*    FAIR      64  61  89 CALM      30.33S
HOT SPRINGS VA CLOUDY    65  58  80 S9        30.41S
LYNCHBURG      CLEAR     66  63  90 CALM      30.32S
DANVILLE       CLOUDY    67  66  97 E3        30.30R
SOUTH BOSTON*  FAIR      66  65  96 CALM      30.30R
MARTINSVILLE   PTCLDY    64  62  96 CALM      30.34R
ROANOKE        MOCLDY    68  65  90 CALM      30.34R
BLACKSBURG     CLEAR     63  62  97 CALM      30.39S
DUBLIN*        CLEAR     64  64  97 CALM      30.37S
MARION*        CLEAR     64  62  91 CALM      30.39S
HILLSVILLE*    PTCLDY    64  61  91 CALM      30.37S
RICHLANDS*     FAIR      68  63  82 SE5       30.35R
WISE*          MOCLDY    68  52  56 CALM      30.36R
ABINGDON*      PTCLDY    69  65  86 CALM      30.33R
$$

MDZ021>025-VAZ099-100-240500-
SOUTHERN MARYLAND AND THE DELMARVA PENINSULA

CITY           SKY/WX    TMP DP  RH WIND       PRES   REMARKS
PATUXENT RIVER CLEAR     69  60  73 S6        30.29S
BAY BRIDGE APT CLEAR     73  64  73 S7        30.29S
LEONARDTOWN    CLEAR     68  61  77 CALM      30.31F
DOVER          CLEAR     66  63  89 S6        30.29S
GEORGETOWN     CLEAR     63  59  87 CALM      30.31S
EASTON         CLEAR     69  63  80 S3        30.34S
CAMBRIDGE      CLEAR     63  59  88 CALM      30.30F
SALISBURY      CLEAR     62  59  90 CALM      30.30S
OCEAN CITY     CLEAR     62  59  90 CALM      30.31R
WALLOPS ISLAND CLEAR     66  60  81 CALM      30.31S
ACCOMACK*      CLEAR     62  58  88 CALM      30.31R
$$

NCZ012>017-030>032-240500-
NORTH CENTRAL AND EASTERN NORTH CAROLINA

CITY           SKY/WX    TMP DP  RH WIND       PRES   REMARKS
ROANOKE RAPIDS FAIR      66  61  82 CALM      30.30F
RALEIGH        PTCLDY    73  63  70 E5        30.30R
ELIZABETH CITY CLEAR     70  61  73 E6        30.30S
AHOSKIE*       CLEAR     64  61  88 CALM      30.31S
EDENTON*       CLEAR     68  60  75 CALM      30.30S
CURRITUCK*       N/A     74  60  61 E3        30.30F
KILL DEVIL HLS CLEAR     72  63  74 CALM      30.27S
MANTEO         CLEAR     72  59  65 E6        30.29S
CAPE HATTERAS  CLEAR     73  63  70 NE6       30.27S
TARBORO*       NOT AVBL
GOLDSBORO      CLEAR     71  68  90 E7        30.27S
WASHINGTON     CLEAR     68  61  78 CALM      30.29F
GREENVILLE     CLEAR     70  63  78 CALM      30.30S
NEW BERN       CLEAR     73  61  65 E6        30.30S
WILMINGTON     CLEAR     77  65  66 E7        30.27R
$$

VAZ048-240500-
ELSEWHERE

CITY           SKY/WX    TMP DP  RH WIND       PRES   REMARKS
HARRISBURG PA  PTCLDY    69  62  78 E5        30.28R
BALTIMORE      CLEAR     65  60  84 CALM      30.29S
ANNAPOLIS      CLEAR     71  63  75 CALM      30.29S
ANDREWS AFB    CLEAR     67  58  72 S6        30.29S
PHILADELPHIA   PTCLDY    73  60  63 SW8       30.30R
HENDERSON NC   CLEAR     68  61  78 SE3       30.30S
GREENSBORO     PTCLDY    73  61  65 E6        30.29S
ROCKY MOUNT    CLEAR     70  64  81 CALM      30.30R
$$

VAZ100-240500-
MARINE

STATION/POSITION TIME  TEMP    WIND        PRES    WAVE   SWELL
                       AIR SEA DIR/SP/G            HT/PER HT/PER
                 (UTC) (F)     (DEG/KT/KT) (MB)    (FT/S) (FT/S)
BRANDYWINE LGT   0300   73     200/ 12/ 13   N/A
CAPE MAY NJ      0300   70 73  180/  5/  6 1025.4S
LEWES DE         0300   68 75  200/  4/  6 1025.8R
OCEAN-CITY-INLET 0300   73 75  160/  3/  5 1026.4R
WACHAPREAGUE VA  0300   73 80  100/  3/  5 1026.1F
THOMAS POINT MD  0400   77 82  160/ 13/ 14 1026.8F
GOOSES REEF MD   0300   79 82  150/ 10/ 14 1026.3R   1
COVE POINT MD    0300   76     180/ 15/ 17 1026.4R
SOLOMONS ISLAND  0300   76 84  170/  7/  9   N/A
BISHOPS HEAD MD  0300   76 80  140/ 12/ 13 1026.3R
PINEY POINT MD   0300          180/ 13/ 16   N/A
POTOMAC MD       0300   77 83  170/ 12/ 14 1025.0S   1/ 3
CAMBRIDGE MD     0300   70 84  160/  5/  7 1025.3R
LEWISETTA VA     0300   73 82  180/  6/  7 1025.6R
RAPPAHANNOCK LGT 0300          110/ 11/ 12 1026.6F
STINGRAY PT      0300   77 84   80/ 10/ 12 1026.4S   1/ 3
YORKTOWN VA      0300   73 83  170/  5/  5 1025.6S
JAMESTOWN VA     0300   76 85  110/ 10/ 12   N/A     1
DOMINION TERM VA 0300   76     120/  7/ 10 1026.1S
KIPTOPEKE VA     0300      78  100/  4/  4   N/A
CHES BAY BRIDGE  0300   76 80   70/ 10/ 11 1026.0F
CAPE HENRY VA    0300   76      80/ 10/ 11   N/A
WILLOUBY STN VA  0300   76      70/  8/ 10   N/A
CAPE HENRY BUOY  0312      79                N/A     3/ 5
1ST LANDING BUOY 0300   76 78  110/ 10/ 12 1025.9F   2/ 3
CAPE CHARLES BUO 0326      77                N/A     2/ 9
OFFSHORE WE BUOY 0321      80                N/A     3/ 5
64NM E OF VA BCH 0350   76 81   40/ 10/ 14 1025.0F   3/ 7   2/ 7
DUCK PIER NC     0300   76 78   60/ 10/ 14 1025.2F
44100 DUCK FRF   0305      80                N/A     3/ 6
44056 DUCK FRF   0311      78                N/A     3/ 6
OREGON INLET NC  0300   75 78   20/  8/  9 1025.3F
HATTERAS NC      0300   76 80   30/  7/  9 1024.8F
DIAMOND SHLS NC  0350   79 84   20/ 12/ 14 1024.4F   3/ 6   2/ 6
CAPE LOOKOUT NC  0400   78      50/ 15/ 17 1024.6F
$$




USA.gov is the U.S. government's official web portal to all federal, state and local government web resources and services.